Showing default

KANYINI, 60556

Orbit data source: Space-Track

KANYINI, 60556 is an Australian payload satellite in SSO that was launched on Fri, 16 Aug 2024 UTC via an FALCON 9 launch vehicle from the Air Force Western Test Range (AFWTR). Payload-class satellites include a variety of spacecraft equipped with specific instruments for various scientific and technological missions. These include communications satellites like Starlink; space stations such as the ISS; scientific satellites like the Hubble; Earth observation satellites from companies like Planet Labs, Umbra, and HawkEye 360; GPS; miniature CubeSats for education and research; and military/defense satellites.

Loading next visibility...
Identifier
60556, 2024-149CS
Orbit
SSO
Country
Flag of AUAU / AUS
Related business
Manufacturer
INOVOR
Mission
Operational Amateur Communications
Bus & Motor
CUBESAT 6U, Unknown motor
Mass
12 kg wet, 12 kg dry
Launch date (UTC)
2024-08-16 (1 year ago)
Launch vehicle
FALCON 9
Launch site
Air Force Western Test Range (AFWTR)
Object type
Payload
Rocket body
Debris
Shape & HBR
Box + 2 Pan, 0.2 m
Radar Cross Section
0.092 m², Small (<0.1 m²)

Expand to show TLE details & history
Last TLE update: 5 hours ago

TLE from 5 hours ago
0 KANYINI
1 60556U 24149CS  26035.17660215  .00035771  00000-0  80562-3 0  9993
2 60556  97.3841 119.3654 0001922  27.2125 332.9223 15.43196581 81936
Epoch: 2026-02-04T04:14Z
TLE epoch observation values (Epoch: 2026-02-04T04:14:18.425Z)
Latitude
-0.00006°
Longitude
-78.5583°
Altitude
438.638 km
Speed
7.649 km/s
True Right ascension
07h 57m 27s
True Declination
0° 00' 00"
Sunlit
Object was in full shadow at epoch
Visualization orbit readout
Latitude
Unknown
Longitude
Unknown
Altitude
Unknown
Speed
Unknown
Apparent Right ascension
Unknown
Apparent Declination
Unknown
Sunlit
N/A
Visualization observer readout
Local Sidereal Time
10:42:46
Azimuth
Unknown
Elevation
Unknown
Doppler factor
Unknown
Orbital elements
Apogee altitude
434.925 km
Perigee altitude
432.307 km
Semi-major axis
6,811.753 km
Eccentricity
0.00019
Inclination
97.3841°
RAAN
119.3654°
Arg. of periapsis
27.2125°
True anomaly
332.91227°
Mean anomaly
332.9223°
Eccentric anomaly
332.91729°
Mean motion
3.8606 °/min
Orbital period
93.25 mins
BSTAR
0.00080562
Loading maneuver chart data...
Computing Atmospheric mass density...
Loading historical data...
Loading historical data...
Loading historical data...
Loading historical data...
Loading historical data...
Loading historical data...
Loading historical data...

Documentation

Showing up to 5 results
|